Mt. Pocono, PA

4:10 AM EDT on August 19, 2017 (GMT -0400)
Pocono Mountains Municipal

Weather History for KMPO - February, 2014

Change the Weather History Date:

Tuesday, February 11, 2014

  Actual Average Record
Temperature  
Mean Temperature 6 °F 25 °F  
Max Temperature 16 °F 33 °F 59 °F (2009)
Min Temperature -5 °F 17 °F -13 °F (1962)
Degree Days  
Heating Degree Days 59 40  
Month to date heating degree days 504 446  
Since 1 July heating degree days 4682 4477  
Cooling Degree Days 0 0  
Month to date cooling degree days 0 0  
Year to date cooling degree days 0 0  
Moisture  
Dew Point -2 °F    
Average Humidity 67    
Maximum Humidity 87    
Minimum Humidity 46    
Precipitation  
Precipitation 0.00 in 0.09 in 2.47 in (1960)
Month to date precipitation 1.46 0.84  
Year to date precipitation 4.81 3.69  
Sea Level Pressure  
Sea Level Pressure 30.35 in    
Wind  
Wind Speed 9 mph (NW)    
Max Wind Speed 17 mph    
Max Gust Speed 23 mph    
Visibility 10 miles    
Events      
T = Trace of Precipitation, MM = Missing Value Source: NWS Daily Summary

Daily Weather History Graph

Daily Weather History Graph

Search for Another Location

Airport or City:

Trip Planner

Search our weather history database for the weather conditions in past years. The results will help you decide how hot, cold, wet, or windy it might be!

Date:

Astronomy

Feb. 11, 2014 Rise Set
Actual Time 7:01 AM EST 5:30 PM EST
Civil Twilight 6:32 AM EST 5:59 PM EST
Nautical Twilight 6:00 AM EST 6:31 PM EST
Astronomical Twilight 5:28 AM EST 7:03 PM EST
Moon 2:48 PM EST (2/11) 4:37 AM EST (2/11)
Length of Visible Light 11h 26m
Length of Day
10h 29m
Waxing Gibbous, 90% of the Moon is Illuminated
Feb 11
Waxing Gibbous
Feb 14
Full
Feb 22
Last Quarter
Mar 1
New
Mar 8
First Quarter

Hourly Weather History & Observations

Time (EST) Temp. Windchill Dew Point Humidity Pressure Visibility Wind Dir Wind Speed Gust Speed Precip Events Conditions
12:53 AM 10.0 °F -4.5 °F -0.0 °F 64% 30.24 in 10.0 mi NW 11.5 mph 19.6 mph N/A   Clear
1:53 AM 8.1 °F -2.0 °F -0.9 °F 67% 30.25 in 10.0 mi WNW 5.8 mph - N/A   Clear
2:53 AM 7.0 °F -4.5 °F -2.0 °F 67% 30.26 in 10.0 mi NW 6.9 mph - N/A   Clear
3:53 AM 5.0 °F -8.1 °F -2.9 °F 70% 30.27 in 10.0 mi NW 8.1 mph - N/A   Clear
4:53 AM -0.0 °F -11.6 °F -5.1 °F 79% 30.29 in 10.0 mi WNW 5.8 mph - N/A   Clear
5:53 AM 1.9 °F -10.6 °F -2.9 °F 80% 30.30 in 10.0 mi NW 6.9 mph - N/A   Clear
6:53 AM -4.0 °F -14.6 °F -7.1 °F 87% 30.32 in 10.0 mi West 4.6 mph - N/A   Clear
7:53 AM -0.9 °F -11.0 °F -5.1 °F 83% 30.35 in 10.0 mi WNW 4.6 mph - N/A   Clear
8:53 AM 7.0 °F -3.3 °F -0.9 °F 70% 30.35 in 10.0 mi NW 5.8 mph - N/A   Clear
9:53 AM 10.9 °F -3.4 °F -0.9 °F 59% 30.37 in 10.0 mi NNW 11.5 mph - N/A   Partly Cloudy
10:53 AM 12.0 °F -2.7 °F -0.9 °F 56% 30.37 in 10.0 mi NW 12.7 mph - N/A   Scattered Clouds
11:53 AM 12.9 °F -1.6 °F -2.0 °F 51% 30.35 in 10.0 mi NW 12.7 mph 20.7 mph N/A   Clear
12:53 PM 15.1 °F 0.5 °F -0.9 °F 49% 30.32 in 10.0 mi NW 13.8 mph 23.0 mph N/A   Clear
1:53 PM 15.1 °F 0.5 °F -2.0 °F 47% 30.30 in 10.0 mi NW 13.8 mph 21.9 mph N/A   Clear
2:53 PM 16.0 °F 1.7 °F -0.9 °F 47% 30.31 in 10.0 mi NNW 13.8 mph 21.9 mph N/A   Clear
3:53 PM 16.0 °F 2.3 °F -0.0 °F 49% 30.34 in 10.0 mi WNW 12.7 mph - N/A   Clear
4:53 PM 14.0 °F 2.9 °F -0.9 °F 52% 30.35 in 10.0 mi NNW 8.1 mph - N/A   Clear
5:53 PM 10.9 °F -1.8 °F -0.9 °F 59% 30.39 in 10.0 mi NNW 9.2 mph - N/A   Clear
6:53 PM 10.0 °F 0.4 °F -2.0 °F 58% 30.43 in 10.0 mi NNW 5.8 mph - N/A   Clear
7:53 PM 8.1 °F -3.2 °F -2.9 °F 61% 30.44 in 10.0 mi NNW 6.9 mph - N/A   Clear
8:53 PM 7.0 °F -1.7 °F -2.9 °F 64% 30.45 in 10.0 mi NNW 4.6 mph - N/A   Clear
9:53 PM 6.1 °F -4.3 °F -4.0 °F 63% 30.46 in 10.0 mi NNW 5.8 mph - N/A   Clear
10:53 PM 5.0 °F -10.8 °F -2.9 °F 70% 30.45 in 10.0 mi NNW 11.5 mph - N/A   Clear
11:53 PM 5.0 °F -5.6 °F -2.0 °F 73% 30.45 in 10.0 mi NNW 5.8 mph - N/A   Clear